| time (UTC) | temp F | wind direction | speed MPH | gust MPH | rain 1hr in | rain 24hr in | rain mn in | humidity % | barometer mb |
| 20260505014220 | 69 | 185 | 1.0 | 2.0 | 0.00 | 0.03 | 0.03 | 58 | 1001.4 |
| 20260505013716 | 69 | 243 | 3.0 | 3.0 | 0.00 | 0.03 | 0.03 | 59 | 1001.6 |
| 20260505013214 | 69 | 273 | 3.0 | 3.0 | 0.00 | 0.03 | 0.03 | 59 | 1001.5 |
| 20260505012712 | 68 | 207 | 1.0 | 2.0 | 0.00 | 0.03 | 0.03 | 59 | 1001.5 |
| 20260505012209 | 68 | 256 | 3.0 | 3.0 | 0.00 | 0.03 | 0.03 | 60 | 1001.0 |
| 20260505011704 | 69 | 218 | 2.0 | 2.0 | 0.00 | 0.03 | 0.03 | 59 | 1001.1 |
| 20260505011202 | 69 | 192 | 0.0 | 0.0 | 0.00 | 0.03 | 0.03 | 59 | 1001.0 |
| 20260505010657 | 69 | 241 | 3.0 | 3.0 | 0.00 | 0.03 | 0.03 | 58 | 1000.7 |
| 20260505010154 | 69 | 214 | 3.0 | 3.0 | 0.00 | 0.03 | 0.03 | 57 | 1000.9 |
| 20260505005650 | 69 | 207 | 1.0 | 1.0 | 0.00 | 0.03 | 0.03 | 59 | 1000.8 |
| 20260505005147 | 69 | 247 | 2.0 | 2.0 | 0.00 | 0.03 | 0.03 | 58 | 1000.6 |
| 20260505004644 | 70 | 234 | 2.0 | 2.0 | 0.00 | 0.03 | 0.03 | 56 | 1000.5 |
| 20260505004141 | 70 | 230 | 3.0 | 5.0 | 0.00 | 0.03 | 0.03 | 56 | 1000.6 |
| 20260505003638 | 70 | 236 | 2.0 | 2.0 | 0.00 | 0.03 | 0.03 | 56 | 1000.6 |
| 20260505003136 | 70 | 245 | 3.0 | 3.0 | 0.00 | 0.03 | 0.03 | 57 | 1000.6 |
| 20260505002631 | 70 | 190 | 2.0 | 2.0 | 0.00 | 0.03 | 0.03 | 57 | 1000.8 |
| 20260505002130 | 70 | 182 | 2.0 | 2.0 | 0.00 | 0.03 | 0.03 | 57 | 1000.5 |
| 20260505001626 | 71 | 192 | 1.0 | 1.0 | 0.00 | 0.03 | 0.03 | 56 | 1000.6 |
| 20260505001124 | 71 | 207 | 2.0 | 2.0 | 0.00 | 0.03 | 0.03 | 56 | 1000.6 |
| 20260505000621 | 71 | 211 | 4.0 | 5.0 | 0.00 | 0.03 | 0.03 | 56 | 1000.6 |
| 20260505000119 | 71 | 264 | 3.0 | 3.0 | 0.00 | 0.03 | 0.03 | 53 | 1000.6 |
| 20260504235615 | 71 | 232 | 3.0 | 3.0 | 0.00 | 0.03 | 0.03 | 54 | 1000.6 |
| 20260504235112 | 71 | 211 | 2.0 | 3.0 | 0.00 | 0.03 | 0.03 | 55 | 1000.7 |
| 20260504234609 | 72 | 245 | 3.0 | 5.0 | 0.00 | 0.03 | 0.03 | 55 | 1001.0 |
| 20260504234106 | 72 | 220 | 3.0 | 3.0 | 0.00 | 0.03 | 0.03 | 53 | 1001.0 |
| 20260504233601 | 72 | 201 | 3.0 | 3.0 | 0.00 | 0.03 | 0.03 | 54 | 1001.1 |
| 20260504233058 | 73 | 218 | 3.0 | 3.0 | 0.00 | 0.03 | 0.03 | 52 | 1001.2 |
| 20260504232555 | 73 | 201 | 3.0 | 3.0 | 0.00 | 0.03 | 0.03 | 51 | 1001.4 |
| 20260504232053 | 73 | 237 | 4.0 | 6.0 | 0.00 | 0.03 | 0.03 | 53 | 1001.5 |
| 20260504231549 | 73 | 248 | 5.0 | 6.0 | 0.00 | 0.03 | 0.03 | 51 | 1001.5 |
| 20260504231045 | 73 | 252 | 6.0 | 7.0 | 0.00 | 0.03 | 0.03 | 52 | 1001.6 |
| 20260504230541 | 73 | 250 | 3.0 | 3.0 | 0.00 | 0.03 | 0.03 | 51 | 1001.4 |
| 20260504230041 | 73 | 215 | 3.0 | 3.0 | 0.00 | 0.03 | 0.03 | 50 | 1001.5 |
| 20260504225537 | 73 | 249 | 4.0 | 5.0 | 0.00 | 0.03 | 0.03 | 49 | 1001.3 |
| 20260504225034 | 73 | 233 | 3.0 | 5.0 | 0.00 | 0.03 | 0.03 | 50 | 1001.4 |
| 20260504224531 | 73 | 245 | 4.0 | 5.0 | 0.00 | 0.03 | 0.03 | 49 | 1001.5 |
| 20260504224028 | 74 | 236 | 3.0 | 3.0 | 0.00 | 0.03 | 0.03 | 48 | 1001.5 |
| 20260504223525 | 74 | 243 | 5.0 | 6.0 | 0.00 | 0.03 | 0.03 | 48 | 1001.8 |
| 20260504223021 | 73 | 248 | 5.0 | 6.0 | 0.00 | 0.03 | 0.03 | 49 | 1001.9 |
| 20260504222518 | 73 | 264 | 4.0 | 5.0 | 0.00 | 0.03 | 0.03 | 52 | 1001.7 |
| 20260504222015 | 74 | 236 | 3.0 | 3.0 | 0.00 | 0.03 | 0.03 | 53 | 1002.0 |
| 20260504221512 | 74 | 268 | 3.0 | 5.0 | 0.00 | 0.03 | 0.03 | 52 | 1001.9 |
| 20260504221009 | 74 | 229 | 5.0 | 6.0 | 0.00 | 0.03 | 0.03 | 53 | 1001.7 |
| 20260504220506 | 73 | 233 | 4.0 | 6.0 | 0.00 | 0.03 | 0.03 | 55 | 1001.7 |
| 20260504220003 | 73 | 241 | 2.0 | 3.0 | 0.00 | 0.03 | 0.03 | 57 | 1001.7 |
| 20260504215459 | 73 | 191 | 2.0 | 2.0 | 0.00 | 0.03 | 0.03 | 59 | 1002.1 |
| 20260504214956 | 73 | 161 | 0.0 | 1.0 | 0.00 | 0.03 | 0.03 | 68 | 1002.1 |
| 20260504214452 | 72 | 267 | 4.0 | 5.0 | 0.00 | 0.03 | 0.03 | 66 | 1002.2 |
| 20260504213949 | 71 | 217 | 2.0 | 5.0 | 0.00 | 0.03 | 0.03 | 68 | 1002.2 |
| 20260504213445 | 71 | 189 | 0.0 | 0.0 | 0.00 | 0.03 | 0.03 | 72 | 1002.1 |
| 20260504212943 | 71 | 168 | 0.0 | 0.0 | 0.00 | 0.03 | 0.03 | 70 | 1002.1 |
| 20260504212438 | 71 | 211 | 1.0 | 1.0 | 0.00 | 0.03 | 0.03 | 70 | 1002.2 |
| 20260504211936 | 71 | 248 | 2.0 | 3.0 | 0.00 | 0.03 | 0.03 | 68 | 1002.3 |
| 20260504211432 | 72 | 239 | 2.0 | 3.0 | 0.00 | 0.03 | 0.03 | 67 | 1002.1 |
| 20260504210930 | 73 | 182 | 1.0 | 2.0 | 0.00 | 0.03 | 0.03 | 64 | 1002.4 |
| 20260504210427 | 74 | 228 | 2.0 | 2.0 | 0.00 | 0.03 | 0.03 | 63 | 1002.4 |
| 20260504205924 | 74 | 279 | 3.0 | 5.0 | 0.00 | 0.03 | 0.03 | 62 | 1002.6 |
| 20260504205421 | 74 | 218 | 1.0 | 1.0 | 0.00 | 0.03 | 0.03 | 66 | 1002.8 |
| 20260504204919 | 73 | 189 | 1.0 | 1.0 | 0.00 | 0.03 | 0.03 | 66 | 1002.7 |
| 20260504204417 | 73 | 216 | 2.0 | 3.0 | 0.00 | 0.03 | 0.03 | 68 | 1003.0 |
| 20260504203917 | 72 | 171 | 1.0 | 1.0 | 0.00 | 0.03 | 0.03 | 73 | 1002.8 |
| 20260504203414 | 70 | 190 | 0.0 | 0.0 | 0.00 | 0.03 | 0.03 | 78 | 1003.1 |
| 20260504202909 | 71 | 177 | 1.0 | 1.0 | 0.00 | 0.03 | 0.03 | 76 | 1003.2 |
| 20260504202406 | 70 | 276 | 0.0 | 1.0 | 0.00 | 0.03 | 0.03 | 83 | 1003.0 |
| 20260504201903 | 68 | 233 | 1.0 | 1.0 | 0.00 | 0.03 | 0.03 | 85 | 1003.2 |
| 20260504201400 | 65 | 195 | 0.0 | 1.0 | 0.00 | 0.03 | 0.03 | 89 | 1003.5 |
| 20260504200857 | 63 | 198 | 2.0 | 2.0 | 0.00 | 0.03 | 0.03 | 91 | 1003.4 |
| 20260504200354 | 62 | 192 | 0.0 | 0.0 | 0.00 | 0.03 | 0.03 | 92 | 1003.0 |
| 20260504195851 | 62 | 179 | 0.0 | 0.0 | 0.00 | 0.03 | 0.03 | 91 | 1003.2 |
| 20260504195346 | 62 | 181 | 0.0 | 0.0 | 0.00 | 0.03 | 0.03 | 91 | 1003.8 |
| 20260504194843 | 61 | 195 | 2.0 | 2.0 | 0.12 | 0.03 | 0.03 | 92 | 1004.0 |
| 20260504194339 | 61 | 197 | 1.0 | 1.0 | 0.12 | 0.03 | 0.03 | 91 | 1004.7 |
| 20260504193835 | 61 | 194 | 1.0 | 2.0 | 0.05 | 0.01 | 0.01 | 87 | 1004.8 |
| 20260504193333 | 62 | 257 | 4.0 | 5.0 | 0.05 | 0.01 | 0.01 | 83 | 1004.7 |
| 20260504192831 | 63 | 254 | 5.0 | 6.0 | 0.00 | 0.00 | 0.00 | 77 | 1004.6 |
| 20260504192329 | 64 | 244 | 4.0 | 5.0 | 0.00 | 0.00 | 0.00 | 74 | 1004.2 |
| 20260504191827 | 65 | 253 | 6.0 | 7.0 | 0.00 | 0.00 | 0.00 | 70 | 1003.9 |
| 20260504191324 | 64 | 214 | 1.0 | 2.0 | 0.00 | 0.00 | 0.00 | 73 | 1003.3 |
| 20260504190820 | 63 | 245 | 3.0 | 3.0 | 0.00 | 0.00 | 0.00 | 74 | 1003.3 |
| 20260504190316 | 63 | 240 | 2.0 | 2.0 | 0.00 | 0.00 | 0.00 | 75 | 1003.3 |
| 20260504185813 | 64 | 193 | 1.0 | 2.0 | 0.00 | 0.00 | 0.00 | 74 | 1003.4 |
| 20260504185310 | 63 | 242 | 2.0 | 2.0 | 0.00 | 0.00 | 0.00 | 72 | 1003.4 |
| 20260504184806 | 63 | 237 | 3.0 | 3.0 | 0.00 | 0.00 | 0.00 | 72 | 1003.5 |
| 20260504184302 | 63 | 220 | 4.0 | 6.0 | 0.00 | 0.00 | 0.00 | 72 | 1004.0 |
| 20260504183757 | 63 | 214 | 2.0 | 2.0 | 0.00 | 0.00 | 0.00 | 75 | 1003.5 |
| 20260504183254 | 63 | 233 | 5.0 | 5.0 | 0.00 | 0.00 | 0.00 | 75 | 1003.9 |
| 20260504182753 | 64 | 250 | 10.0 | 11.0 | 0.00 | 0.00 | 0.00 | 75 | 1004.0 |
| 20260504182250 | 65 | 231 | 4.0 | 6.0 | 0.00 | 0.00 | 0.00 | 72 | 1003.9 |
| 20260504181747 | 66 | 256 | 6.0 | 7.0 | 0.00 | 0.00 | 0.00 | 69 | 1004.5 |
| 20260504181244 | 66 | 263 | 5.0 | 6.0 | 0.00 | 0.00 | 0.00 | 68 | 1004.4 |
| 20260504180743 | 66 | 266 | 6.0 | 8.0 | 0.00 | 0.00 | 0.00 | 67 | 1004.5 |
| 20260504180242 | 66 | 250 | 6.0 | 8.0 | 0.00 | 0.00 | 0.00 | 68 | 1004.5 |
| 20260504175739 | 66 | 250 | 4.0 | 6.0 | 0.00 | 0.00 | 0.00 | 70 | 1004.4 |
| 20260504175235 | 66 | 249 | 5.0 | 6.0 | 0.00 | 0.00 | 0.00 | 67 | 1004.4 |
| 20260504174733 | 66 | 233 | 7.0 | 9.0 | 0.00 | 0.00 | 0.00 | 67 | 1004.2 |
| 20260504174231 | 67 | 260 | 6.0 | 8.0 | 0.00 | 0.00 | 0.00 | 67 | 1004.0 |
| 20260504173727 | 68 | 249 | 7.0 | 8.0 | 0.00 | 0.00 | 0.00 | 66 | 1004.1 |
| 20260504173224 | 68 | 243 | 4.0 | 6.0 | 0.00 | 0.00 | 0.00 | 65 | 1003.9 |
| 20260504172721 | 67 | 251 | 5.0 | 6.0 | 0.00 | 0.00 | 0.00 | 69 | 1004.0 |
| 20260504172217 | 67 | 174 | 1.0 | 2.0 | 0.00 | 0.00 | 0.00 | 69 | 1003.7 |
| 20260504171714 | 67 | 243 | 1.0 | 2.0 | 0.00 | 0.00 | 0.00 | 69 | 1004.1 |
| 20260504171211 | 67 | 189 | 3.0 | 5.0 | 0.00 | 0.00 | 0.00 | 70 | 1003.9 |
| 20260504170708 | 67 | 244 | 3.0 | 3.0 | 0.00 | 0.00 | 0.00 | 68 | 1003.9 |
| 20260504170206 | 67 | 200 | 2.0 | 3.0 | 0.00 | 0.00 | 0.00 | 68 | 1003.3 |
| 20260504160124 | 69 | 185 | 4.0 | 5.0 | 0.00 | 0.00 | 0.00 | 66 | 1004.8 |
| 20260504151051 | 67 | 232 | 4.0 | 5.0 | 0.00 | 0.00 | 0.00 | 65 | 1005.1 |
| 20260504150548 | 67 | 241 | 5.0 | 6.0 | 0.00 | 0.00 | 0.00 | 66 | 1005.0 |
| 20260504141014 | 63 | 247 | 0.0 | 0.0 | 0.00 | 0.00 | 0.00 | 74 | 1005.3 |
| 20260504140511 | 63 | 242 | 2.0 | 2.0 | 0.00 | 0.00 | 0.00 | 76 | 1005.4 |
| 20260504130435 | 57 | 168 | 0.0 | 1.0 | 0.00 | 0.00 | 0.00 | 83 | 1005.3 |
| 20260504110322 | 48 | 155 | 0.0 | 0.0 | 0.00 | 0.00 | 0.00 | 91 | 1005.2 |
| 20260504100240 | 47 | 155 | 0.0 | 0.0 | 0.00 | 0.00 | 0.00 | 93 | 1005.5 |
| 20260504081633 | 46 | 156 | 0.0 | 0.0 | 0.00 | 0.00 | 0.00 | 90 | 1006.3 |
| 20260504081129 | 47 | 151 | 0.0 | 0.0 | 0.00 | 0.00 | 0.00 | 90 | 1006.6 |
| 20260504080626 | 47 | 155 | 0.0 | 0.0 | 0.00 | 0.00 | 0.00 | 90 | 1006.5 |
| 20260504080122 | 47 | 157 | 0.0 | 0.0 | 0.00 | 0.00 | 0.00 | 89 | 1006.4 |
| 20260504050439 | 50 | 152 | 0.0 | 0.0 | 0.00 | 0.00 | 0.00 | 80 | 1007.9 |
| 20260504045936 | 50 | 154 | 0.0 | 0.0 | 0.00 | 0.00 | 0.00 | 79 | 1007.6 |
| 20260504045432 | 50 | 153 | 0.0 | 0.0 | 0.00 | 0.00 | 0.00 | 78 | 1007.8 |
| 20260504044928 | 51 | 147 | 0.0 | 0.0 | 0.00 | 0.00 | 0.00 | 78 | 1007.8 |
| 20260504044426 | 51 | 154 | 0.0 | 0.0 | 0.00 | 0.00 | 0.00 | 78 | 1007.8 |
| 20260504043923 | 51 | 153 | 0.0 | 0.0 | 0.00 | 0.00 | 0.00 | 78 | 1007.9 |
| 20260504043420 | 51 | 153 | 0.0 | 0.0 | 0.00 | 0.00 | 0.00 | 77 | 1007.9 |
| 20260504042917 | 51 | 147 | 0.0 | 0.0 | 0.00 | 0.00 | 0.00 | 77 | 1008.2 |
| 20260504042414 | 51 | 158 | 0.0 | 0.0 | 0.00 | 0.00 | 0.00 | 75 | 1008.1 |
| 20260504041910 | 52 | 153 | 0.0 | 0.0 | 0.00 | 0.00 | 0.00 | 75 | 1008.1 |
| 20260504041406 | 52 | 158 | 0.0 | 0.0 | 0.00 | 0.00 | 0.00 | 75 | 1008.0 |
| 20260504040902 | 52 | 152 | 0.0 | 0.0 | 0.00 | 0.00 | 0.00 | 74 | 1008.0 |
| 20260504040400 | 52 | 149 | 0.0 | 0.0 | 0.00 | 0.00 | 0.00 | 74 | 1008.0 |
| 20260504035856 | 53 | 158 | 0.0 | 0.0 | 0.00 | 0.00 | 0.00 | 74 | 1008.1 |
| 20260504035354 | 53 | 153 | 0.0 | 0.0 | 0.00 | 0.00 | 0.00 | 73 | 1008.1 |
| 20260504034850 | 53 | 151 | 0.0 | 0.0 | 0.00 | 0.00 | 0.00 | 73 | 1008.1 |
| 20260504034348 | 54 | 155 | 0.0 | 0.0 | 0.00 | 0.00 | 0.00 | 73 | 1008.6 |
| 20260504033844 | 54 | 158 | 0.0 | 0.0 | 0.00 | 0.00 | 0.00 | 73 | 1008.6 |
| 20260504033343 | 54 | 169 | 0.0 | 0.0 | 0.00 | 0.00 | 0.00 | 73 | 1008.3 |
| 20260504032839 | 54 | 169 | 0.0 | 0.0 | 0.00 | 0.00 | 0.00 | 71 | 1008.4 |
| 20260504032336 | 54 | 160 | 0.0 | 0.0 | 0.00 | 0.00 | 0.00 | 74 | 1008.4 |
| 20260504031833 | 54 | 152 | 0.0 | 0.0 | 0.00 | 0.00 | 0.00 | 73 | 1008.6 |
| 20260504031330 | 53 | 154 | 0.0 | 0.0 | 0.00 | 0.00 | 0.00 | 73 | 1008.4 |
| 20260504030826 | 53 | 155 | 0.0 | 0.0 | 0.00 | 0.00 | 0.00 | 74 | 1008.7 |
| 20260504030324 | 53 | 155 | 0.0 | 0.0 | 0.00 | 0.00 | 0.00 | 74 | 1008.6 |
| 20260504025820 | 53 | 151 | 0.0 | 0.0 | 0.00 | 0.00 | 0.00 | 73 | 1008.7 |
| 20260504025317 | 53 | 151 | 0.0 | 0.0 | 0.00 | 0.00 | 0.00 | 72 | 1008.8 |
| 20260504024813 | 54 | 155 | 0.0 | 0.0 | 0.00 | 0.00 | 0.00 | 73 | 1008.6 |
| 20260504024310 | 54 | 156 | 0.0 | 0.0 | 0.00 | 0.00 | 0.00 | 72 | 1008.8 |
| 20260504023807 | 54 | 168 | 0.0 | 0.0 | 0.00 | 0.00 | 0.00 | 72 | 1008.4 |
| 20260504023303 | 54 | 160 | 0.0 | 0.0 | 0.00 | 0.00 | 0.00 | 72 | 1008.7 |
| 20260504022759 | 54 | 156 | 0.0 | 0.0 | 0.00 | 0.00 | 0.00 | 71 | 1008.6 |
| 20260504022256 | 55 | 165 | 0.0 | 0.0 | 0.00 | 0.00 | 0.00 | 71 | 1008.8 |
| 20260504021752 | 55 | 156 | 0.0 | 0.0 | 0.00 | 0.00 | 0.00 | 69 | 1008.6 |
| 20260504021250 | 55 | 171 | 0.0 | 0.0 | 0.00 | 0.00 | 0.00 | 70 | 1008.6 |
| 20260504020747 | 56 | 164 | 0.0 | 0.0 | 0.00 | 0.00 | 0.00 | 67 | 1008.6 |
| 20260504020243 | 56 | 179 | 0.0 | 0.0 | 0.00 | 0.00 | 0.00 | 65 | 1008.7 |
| 20260504015739 | 55 | 162 | 0.0 | 0.0 | 0.00 | 0.00 | 0.00 | 67 | 1008.7 |
| 20260504015236 | 55 | 173 | 0.0 | 0.0 | 0.00 | 0.00 | 0.00 | 69 | 1008.3 |
| 20260504014732 | 55 | 166 | 0.0 | 0.0 | 0.00 | 0.00 | 0.00 | 70 | 1008.8 |